Coldwater, MI

3:30 PM EST on December 17, 2017 (GMT -0500)
Branch County Memorial

Weather History for KOEB - November, 2013

Change the Weather History Date:

Sunday, November 24, 2013

  Actual Average (KJYM) Record (KJYM)
Temperature  
Mean Temperature 19 °F -  
Max Temperature 25 °F 44 °F 60 °F (1973)
Min Temperature 13 °F 27 °F -4 °F (1950)
Degree Days  
Heating Degree Days 46    
Moisture  
Dew Point 13 °F    
Average Humidity 76    
Maximum Humidity 86    
Minimum Humidity 62    
Precipitation  
Precipitation 0.00 in - - ()
Sea Level Pressure  
Sea Level Pressure 30.52 in    
Wind  
Wind Speed 7 mph (West)    
Max Wind Speed 12 mph    
Max Gust Speed 16 mph    
Visibility 9 miles    
Events Snow    
Averages and records for this station are not official NWS values.
T = Trace of Precipitation, MM = Missing Value Source: NWS Daily Summary

Daily Weather History Graph

Daily Weather History Graph

Search for Another Location

Airport or City:

Trip Planner

Search our weather history database for the weather conditions in past years. The results will help you decide how hot, cold, wet, or windy it might be!

Date:

Astronomy

Nov. 24, 2013 Rise Set
Actual Time 7:40 AM EST 5:12 PM EST
Civil Twilight 7:10 AM EST 5:43 PM EST
Nautical Twilight 6:35 AM EST 6:17 PM EST
Astronomical Twilight 6:02 AM EST 6:51 PM EST
Moon 11:41 PM EST (11/24) 12:25 PM EST (11/24)
Length of Visible Light 10h 33m
Length of Day
9h 31m
Waning Gibbous, 61% of the Moon is Illuminated
Nov 24
Waning Gibbous
Nov 25
Last Quarter
Dec 2
New
Dec 9
First Quarter
Dec 17
Full

Hourly Weather History & Observations

Time (EST) Temp. Windchill Dew Point Humidity Pressure Visibility Wind Dir Wind Speed Gust Speed Precip Events Conditions
12:15 AM 15.6 °F 8.3 °F 10.6 °F 80% 30.53 in 10.0 mi WNW 4.6 mph - N/A   Clear
12:35 AM 16.3 °F 5.7 °F 10.8 °F 79% 30.54 in 10.0 mi WNW 8.1 mph - N/A   Scattered Clouds
12:55 AM 16.5 °F 6.9 °F 10.8 °F 78% 30.54 in 10.0 mi WNW 6.9 mph - N/A   Clear
1:14 AM 16.3 °F 7.8 °F 11.1 °F 80% 30.54 in 10.0 mi NW 5.8 mph - N/A   Scattered Clouds
1:35 AM 15.8 °F 6.1 °F 10.9 °F 81% 30.53 in 10.0 mi NW 6.9 mph - N/A   Scattered Clouds
1:55 AM 15.8 °F 5.1 °F 11.1 °F 82% 30.53 in 10.0 mi NNW 8.1 mph - N/A   Scattered Clouds
2:14 AM 16.0 °F 5.3 °F 10.8 °F 80% 30.54 in 10.0 mi NNW 8.1 mph - N/A   Clear
2:35 AM 16.3 °F 5.7 °F 10.2 °F 77% 30.54 in 10.0 mi NNW 8.1 mph - N/A   Clear
2:55 AM 15.4 °F 6.8 °F 10.2 °F 80% 30.54 in 10.0 mi NNW 5.8 mph - N/A   Clear
3:14 AM 15.6 °F 4.9 °F 10.0 °F 79% 30.54 in 10.0 mi NNW 8.1 mph - N/A   Clear
3:35 AM 15.4 °F 6.8 °F 9.5 °F 77% 30.55 in 10.0 mi WNW 5.8 mph - N/A   Clear
3:55 AM 14.0 °F - 10.2 °F 85% 30.55 in 10.0 mi North - - N/A   Clear
4:14 AM 13.8 °F - 10.4 °F 86% 30.55 in 10.0 mi North - - N/A   Scattered Clouds
4:35 AM 16.0 °F 8.8 °F 11.1 °F 81% 30.55 in 10.0 mi WNW 4.6 mph - N/A   Overcast
4:55 AM 16.5 °F 8.1 °F 10.6 °F 77% 30.55 in 10.0 mi West 5.8 mph - N/A   Overcast
5:14 AM 17.4 °F 8.0 °F 10.6 °F 75% 30.55 in 10.0 mi West 6.9 mph - N/A   Overcast
5:35 AM 17.6 °F 8.2 °F 9.9 °F 72% 30.55 in 10.0 mi West 6.9 mph - N/A   Overcast
5:55 AM 18.1 °F 8.9 °F 9.5 °F 69% 30.55 in 10.0 mi WNW 6.9 mph - N/A   Overcast
6:14 AM 18.3 °F 11.5 °F 9.7 °F 69% 30.55 in 10.0 mi West 4.6 mph - N/A   Overcast
6:35 AM 18.5 °F 9.3 °F 9.5 °F 68% 30.55 in 10.0 mi WNW 6.9 mph - N/A   Overcast
6:55 AM 18.5 °F 8.4 °F 10.0 °F 70% 30.56 in 10.0 mi WNW 8.1 mph - N/A   Overcast
7:14 AM 18.7 °F 9.5 °F 11.3 °F 73% 30.56 in 10.0 mi WNW 6.9 mph - N/A   Overcast
7:35 AM 18.5 °F 8.4 °F 11.5 °F 74% 30.57 in 10.0 mi NW 8.1 mph - N/A   Overcast
7:54 AM 18.5 °F 7.5 °F 12.6 °F 78% 30.57 in 10.0 mi NW 9.2 mph - N/A   Overcast
8:15 AM 18.7 °F 10.6 °F 13.3 °F 79% 30.57 in 10.0 mi NW 5.8 mph - N/A   Overcast
8:35 AM 18.9 °F 10.8 °F 13.6 °F 80% 30.57 in 10.0 mi NW 5.8 mph - N/A   Overcast
8:54 AM 19.4 °F 10.4 °F 13.8 °F 79% 30.58 in 10.0 mi WNW 6.9 mph - N/A   Overcast
9:15 AM 19.9 °F 12.1 °F 14.2 °F 78% 30.60 in 10.0 mi WNW 5.8 mph - N/A   Overcast
9:35 AM 20.3 °F 11.5 °F 14.2 °F 77% 30.60 in 10.0 mi West 6.9 mph - N/A   Overcast
9:54 AM 20.8 °F 12.1 °F 14.4 °F 76% 30.60 in 10.0 mi WNW 6.9 mph - N/A   Overcast
10:15 AM 21.2 °F 13.6 °F 14.5 °F 75% 30.60 in 7.0 mi WNW 5.8 mph - N/A Snow Light Snow
10:35 AM 22.3 °F 14.9 °F 14.9 °F 73% 30.60 in 7.0 mi West 5.8 mph - N/A Snow Light Snow
10:54 AM 22.8 °F 13.6 °F 14.5 °F 71% 30.60 in 7.0 mi WNW 8.1 mph - N/A Snow Light Snow
11:15 AM 22.1 °F 12.0 °F 14.7 °F 73% 30.60 in 5.0 mi WNW 9.2 mph - N/A Snow Light Snow
11:35 AM 23.4 °F 14.3 °F 14.5 °F 69% 30.59 in 4.0 mi West 8.1 mph - N/A Snow Light Snow
11:54 AM 23.5 °F 13.7 °F 14.7 °F 69% 30.58 in 5.0 mi West 9.2 mph - N/A Snow Light Snow
12:15 PM 23.2 °F 14.1 °F 16.0 °F 74% 30.57 in 4.0 mi West 8.1 mph - N/A Snow Light Snow
12:35 PM 23.4 °F 15.2 °F 15.1 °F 71% 30.56 in 3.0 mi WSW 6.9 mph - N/A Snow Light Snow
12:54 PM 23.9 °F 14.2 °F 16.3 °F 73% 30.56 in 4.0 mi West 9.2 mph - N/A Snow Light Snow
1:15 PM 23.9 °F 13.5 °F 15.3 °F 70% 30.55 in 10.0 mi West 10.4 mph - N/A   Overcast
1:35 PM 24.1 °F 15.2 °F 16.2 °F 72% 30.54 in 7.0 mi West 8.1 mph - N/A Snow Light Snow
1:55 PM 24.4 °F 15.6 °F 16.9 °F 73% 30.53 in 7.0 mi West 8.1 mph - N/A Snow Light Snow
2:15 PM 24.8 °F 16.9 °F 16.5 °F 71% 30.53 in 10.0 mi WNW 6.9 mph - N/A   Overcast
2:34 PM 25.3 °F 14.7 °F 16.3 °F 69% 30.52 in 10.0 mi West 11.5 mph 16.1 mph N/A   Overcast
2:55 PM 24.6 °F 15.1 °F 16.2 °F 70% 30.52 in 10.0 mi WNW 9.2 mph - N/A   Overcast
3:15 PM 25.2 °F 15.1 °F 14.2 °F 63% 30.51 in 10.0 mi WNW 10.4 mph - N/A   Overcast
3:35 PM 25.3 °F 17.6 °F 14.0 °F 62% 30.52 in 10.0 mi WNW 6.9 mph - N/A   Overcast
3:55 PM 24.8 °F 14.6 °F 14.7 °F 66% 30.52 in 10.0 mi WNW 10.4 mph - N/A Snow Light Snow
4:14 PM 24.6 °F 14.4 °F 16.5 °F 71% 30.51 in 10.0 mi WNW 10.4 mph - N/A   Overcast
4:35 PM 24.3 °F 14.6 °F 19.2 °F 81% 30.52 in 10.0 mi WNW 9.2 mph - N/A Snow Light Snow
4:55 PM 23.7 °F 14.7 °F 17.6 °F 77% 30.51 in 10.0 mi West 8.1 mph - N/A Snow Light Snow
5:14 PM 21.9 °F 15.7 °F 17.1 °F 82% 30.50 in 10.0 mi West 4.6 mph - N/A   Scattered Clouds
5:35 PM 20.7 °F 15.8 °F 16.5 °F 84% 30.50 in 10.0 mi West 3.5 mph - N/A   Clear
5:55 PM 19.8 °F - 15.6 °F 84% 30.49 in 10.0 mi Calm Calm - N/A   Clear
6:14 PM 19.8 °F 14.7 °F 15.1 °F 82% 30.49 in 10.0 mi WSW 3.5 mph - N/A   Clear
6:35 PM 19.2 °F - 14.9 °F 83% 30.49 in 10.0 mi Calm Calm - N/A   Clear
6:55 PM 19.6 °F 13.0 °F 14.4 °F 80% 30.48 in 10.0 mi SW 4.6 mph - N/A   Clear
7:14 PM 18.7 °F 11.9 °F 13.5 °F 80% 30.48 in 10.0 mi SSW 4.6 mph - N/A   Clear
7:35 PM 18.1 °F 11.3 °F 12.9 °F 80% 30.47 in 10.0 mi SSW 4.6 mph - N/A   Clear
7:55 PM 18.0 °F 12.7 °F 12.9 °F 81% 30.47 in 10.0 mi SSW 3.5 mph - N/A   Clear
8:14 PM 17.6 °F 12.3 °F 13.1 °F 83% 30.46 in 10.0 mi SSW 3.5 mph - N/A   Clear
8:35 PM 18.3 °F 11.5 °F 13.1 °F 80% 30.45 in 10.0 mi SW 4.6 mph - N/A   Clear
8:55 PM 18.1 °F 10.0 °F 13.1 °F 81% 30.45 in 10.0 mi SW 5.8 mph - N/A   Clear
9:14 PM 17.6 °F 9.3 °F 13.1 °F 83% 30.44 in 10.0 mi SSW 5.8 mph - N/A   Clear
9:35 PM 18.5 °F 10.4 °F 13.8 °F 82% 30.44 in 10.0 mi SW 5.8 mph - N/A   Clear
9:55 PM 18.5 °F 10.4 °F 14.0 °F 83% 30.43 in 10.0 mi SW 5.8 mph - N/A   Clear
10:15 PM 18.1 °F 8.9 °F 13.8 °F 83% 30.43 in 10.0 mi SSW 6.9 mph - N/A   Clear
10:35 PM 18.5 °F 8.4 °F 13.6 °F 81% 30.43 in 10.0 mi SW 8.1 mph - N/A   Clear
10:54 PM 19.0 °F 9.0 °F 12.2 °F 75% 30.42 in 10.0 mi SW 8.1 mph - N/A   Clear
11:15 PM 18.9 °F 8.8 °F 11.3 °F 72% 30.41 in 10.0 mi SSW 8.1 mph - N/A   Clear
11:35 PM 18.9 °F 7.2 °F 10.9 °F 71% 30.40 in 10.0 mi SSW 10.4 mph - N/A   Clear
11:54 PM 19.2 °F 8.4 °F 10.0 °F 67% 30.39 in 10.0 mi SW 9.2 mph - N/A   Clear